Weather History for NW Arkansas Airport, AR

Change the Weather History Date:

Tuesday, October 14, 2014

  Actual Average Record
Temperature  
Mean Temperature 58 °F -  
Max Temperature 66 °F - - ()
Min Temperature 52 °F - - ()
Degree Days  
Heating Degree Days 7    
Growing Degree Days 8 (Base 50)    
Moisture  
Dew Point 44 °F    
Average Humidity 66    
Maximum Humidity 93    
Minimum Humidity 40    
Precipitation  
Precipitation 0.00 in - - ()
Sea Level Pressure  
Sea Level Pressure 29.83 in    
Wind  
Wind Speed 13 mph (WNW)    
Max Wind Speed 22 mph    
Max Gust Speed 34 mph    
Visibility 10 miles    
Events Rain    
T = Trace of Precipitation, MM = Missing Value Source: NWS Daily Summary

Daily Weather History Graph

Daily Weather History Graph

Search for Another Location

Airport:

Trip Planner

Search our weather history database for the weather conditions in past years. The results will help you decide how hot, cold, wet, or windy it might be!

Date:

Astronomy

Oct. 14, 2014 Rise Set
Actual Time 7:23 AM CDT 6:42 PM CDT
Civil Twilight 6:57 AM CDT 7:08 PM CDT
Nautical Twilight 6:27 AM CDT 7:38 PM CDT
Astronomical Twilight 5:57 AM CDT 8:07 PM CDT
Moon 11:53 PM CDT (10/14) 1:19 PM CDT (10/14)
Length of Visible Light 12h 10m
Length of Day
11h 19m
Waning Gibbous, 61% of the Moon is Illuminated
Oct 14
Waning Gibbous
Oct 15
Last Quarter
Oct 23
New
Oct 30
First Quarter
Nov 6
Full

Hourly Weather History & Observations

Time (CDT) Temp. Dew Point Humidity Pressure Visibility Wind Dir Wind Speed Gust Speed Precip Events Conditions
12:42 AM 52.0 °F 50.0 °F 93% 29.72 in 10.0 mi WNW 12.7 mph - N/A   Overcast
12:53 AM 52.0 °F 50.0 °F 93% 29.70 in 10.0 mi NW 13.8 mph 20.7 mph N/A   Overcast
1:53 AM 52.0 °F 48.9 °F 89% 29.70 in 10.0 mi WNW 11.5 mph - N/A   Overcast
2:53 AM 53.1 °F 48.0 °F 83% 29.70 in 10.0 mi WNW 11.5 mph 18.4 mph N/A   Overcast
3:53 AM 53.1 °F 46.9 °F 80% 29.70 in 10.0 mi WNW 11.5 mph - N/A   Overcast
4:53 AM 53.1 °F 46.0 °F 77% 29.73 in 10.0 mi WNW 10.4 mph - N/A   Overcast
5:53 AM 52.0 °F 46.0 °F 80% 29.75 in 10.0 mi West 12.7 mph - 0.00 in   Overcast
6:53 AM 52.0 °F 45.0 °F 77% 29.77 in 10.0 mi WNW 13.8 mph - N/A   Overcast
7:53 AM 52.0 °F 45.0 °F 77% 29.79 in 10.0 mi WNW 17.3 mph 25.3 mph N/A   Overcast
8:53 AM 52.0 °F 44.1 °F 74% 29.81 in 10.0 mi WNW 16.1 mph 25.3 mph N/A   Scattered Clouds
9:53 AM 55.0 °F 44.1 °F 67% 29.83 in 10.0 mi NW 16.1 mph 24.2 mph 0.00 in Rain Light Rain
10:53 AM 57.0 °F 44.1 °F 62% 29.83 in 10.0 mi NW 16.1 mph 27.6 mph 0.00 in   Clear
11:53 AM 60.1 °F 46.0 °F 60% 29.84 in 10.0 mi WNW 12.7 mph 24.2 mph N/A   Partly Cloudy
12:53 PM 62.1 °F 45.0 °F 53% 29.84 in 10.0 mi WNW 13.8 mph 26.5 mph N/A   Clear
1:53 PM 64.0 °F 42.1 °F 45% 29.85 in 10.0 mi NW 20.7 mph 34.5 mph N/A   Clear
2:53 PM 64.9 °F 39.9 °F 40% 29.86 in 10.0 mi NW 21.9 mph 34.5 mph N/A   Clear
3:53 PM 64.9 °F 41.0 °F 42% 29.86 in 10.0 mi NW 18.4 mph 24.2 mph N/A   Clear
4:53 PM 64.0 °F 39.9 °F 41% 29.87 in 10.0 mi NW 16.1 mph 24.2 mph N/A   Clear
5:53 PM 63.0 °F 41.0 °F 45% 29.89 in 10.0 mi NW 13.8 mph 24.2 mph N/A   Clear
6:53 PM 57.9 °F 39.9 °F 51% 29.91 in 10.0 mi WNW 6.9 mph - N/A   Clear
7:53 PM 55.0 °F 43.0 °F 64% 29.93 in 10.0 mi West 6.9 mph - N/A   Clear
8:53 PM 55.0 °F 42.1 °F 62% 29.95 in 10.0 mi WNW 8.1 mph - N/A   Clear
9:53 PM 54.0 °F 42.1 °F 64% 29.96 in 10.0 mi WNW 6.9 mph - N/A   Clear
10:53 PM 53.1 °F 41.0 °F 64% 29.97 in 10.0 mi WNW 8.1 mph - N/A   Clear
11:53 PM 52.0 °F 41.0 °F 66% 29.96 in 10.0 mi WNW 9.2 mph - N/A   Clear